Tracking 30685 objects as of 17-Jun-2025
HD Live streaming from Space Station
objects crossing your sky now

NOAA 16 DEB

Track NOAA 16 DEB now!
10-day predictions


NORAD ID: 42422
Int'l Code: 2000-055TS
Perigee: 789.7 km
Apogee: 803.8 km
Inclination: 98.8 °
Period: 100.7 minutes
Semi major axis: 7167 km
RCS: Unknown
Launch date: September 21, 2000
Source: United States (US)
Launch site: AIR FORCE WESTERN TEST RANGE (AFWTR)

Note: This is SATELLITE DEBRIS
Your satellite tracking list
Your tracking list is empty




NASA's NSSDC Master Catalog

Two Line Element Set (TLE):
1 42422U 00055TS  25167.20356391  .00003529  00000-0  13673-2 0  9995
2 42422  98.7784 264.1587 0009870 281.5827  78.4247 14.30637583474602
Source of the keplerian elements: AFSPC